UAE848 FACT-VOBL

Flight info

Callsign UAE848
Flight time N/A
Altitude 37000
Route TETAN1A TETAN UZ39 BLV UZ36 TEVAP UG467 VL UW19 AVITO/N0482F370 UM307 NESAM/N0480F380 UM307 OTKIR/N0477F390 G465 MLE R457 TVM W43 UGABA UGABA7F
Aircraft B77L/H-SDE1E2E3FGHIJ2J3J4J5M1RWXY/LB1D1

Departure

Time N/A
Airport Cape Town International Airport (FACT)

Arrival

Time 2026-05-06 20:36
Airport Kempegowda International Airport Bengaluru (VOBL)
Time Latitude Longitude Altitude Speed Heading
2026-05-06 16:22 -5.38515 54.37981 36894 ft 473 kts 52°
2026-05-06 16:22 -5.36452 54.40554 36899 ft 474 kts 51°
2026-05-06 16:23 -5.32226 54.45637 36903 ft 474 kts 50°
2026-05-06 16:23 -5.28007 54.50744 36890 ft 475 kts 51°
2026-05-06 16:24 -5.23857 54.55912 36894 ft 477 kts 51°
2026-05-06 16:24 -5.19684 54.61097 36899 ft 478 kts 52°
2026-05-06 16:25 -5.15499 54.66284 36906 ft 478 kts 50°
2026-05-06 16:25 -5.11280 54.71425 36906 ft 477 kts 51°
2026-05-06 16:26 -5.07094 54.76597 36900 ft 477 kts 51°
2026-05-06 16:26 -5.02918 54.81773 36895 ft 477 kts 51°
2026-05-06 16:27 -4.99441 54.86073 36895 ft 477 kts 51°
2026-05-06 16:27 -4.95248 54.91231 36895 ft 477 kts 51°
2026-05-06 16:28 -4.91055 54.96381 36898 ft 477 kts 51°
2026-05-06 16:28 -4.86875 55.01552 36898 ft 478 kts 51°
2026-05-06 16:29 -4.82677 55.06736 36893 ft 479 kts 51°
2026-05-06 16:29 -4.78471 55.11921 36891 ft 480 kts 51°
2026-05-06 16:30 -4.74943 55.16265 36886 ft 480 kts 51°
2026-05-06 16:30 -4.70044 55.22298 36884 ft 480 kts 51°
2026-05-06 16:31 -4.65835 55.27497 36878 ft 479 kts 52°
2026-05-06 16:31 -4.61674 55.32717 36889 ft 479 kts 51°
2026-05-06 16:32 -4.57418 55.37865 36882 ft 480 kts 51°
2026-05-06 16:32 -4.53182 55.43040 36880 ft 480 kts 51°
2026-05-06 16:33 -4.48963 55.48234 36883 ft 481 kts 51°
2026-05-06 16:34 -4.42661 55.56052 36873 ft 480 kts 51°
2026-05-06 16:34 -4.38411 55.61224 36882 ft 480 kts 51°
2026-05-06 16:35 -4.34193 55.66396 36880 ft 479 kts 51°
2026-05-06 16:35 -4.30360 55.71843 36885 ft 478 kts 60°
2026-05-06 16:36 -4.27506 55.77858 36892 ft 478 kts 66°
2026-05-06 16:36 -4.24926 55.83948 36893 ft 478 kts 66°
2026-05-06 16:37 -4.22316 55.90074 36898 ft 478 kts 66°
2026-05-06 16:37 -4.19686 55.96183 36902 ft 478 kts 66°
2026-05-06 16:38 -4.17046 56.02290 36900 ft 477 kts 66°
2026-05-06 16:38 -4.14404 56.08392 36901 ft 477 kts 66°
2026-05-06 16:39 -4.11779 56.14459 36899 ft 477 kts 66°
2026-05-06 16:39 -4.09261 56.20634 36895 ft 476 kts 67°
2026-05-06 16:40 -4.06598 56.26663 36904 ft 477 kts 65°
2026-05-06 16:40 -4.03880 56.32731 36913 ft 478 kts 65°
2026-05-06 16:41 -4.01212 56.38818 36903 ft 477 kts 66°
2026-05-06 16:41 -3.98584 56.44906 36907 ft 476 kts 66°
2026-05-06 16:42 -3.95961 56.50985 36904 ft 475 kts 66°
2026-05-06 16:42 -3.93341 56.57042 36906 ft 474 kts 66°
2026-05-06 16:43 -3.90715 56.63069 36903 ft 471 kts 66°
2026-05-06 16:43 -3.88098 56.69073 36910 ft 471 kts 66°
2026-05-06 16:44 -3.85502 56.75091 36905 ft 471 kts 66°
2026-05-06 16:44 -3.82916 56.81077 36904 ft 472 kts 66°
2026-05-06 16:45 -3.80304 56.87107 36906 ft 472 kts 66°
2026-05-06 16:45 -3.77687 56.93140 36903 ft 472 kts 66°
2026-05-06 16:46 -3.75071 56.99165 36903 ft 472 kts 66°
2026-05-06 16:46 -3.72454 57.05195 36904 ft 472 kts 66°
2026-05-06 16:47 -3.69836 57.11225 36902 ft 472 kts 66°
2026-05-06 16:47 -3.67221 57.17244 36904 ft 472 kts 66°
2026-05-06 16:48 -3.64607 57.23263 36900 ft 471 kts 66°
2026-05-06 16:48 -3.61994 57.29278 36904 ft 471 kts 66°
2026-05-06 16:49 -3.59380 57.35294 36897 ft 471 kts 66°
2026-05-06 16:49 -3.56768 57.41302 36904 ft 471 kts 66°
2026-05-06 16:50 -3.54157 57.47309 36902 ft 470 kts 66°
2026-05-06 16:50 -3.51546 57.53313 36903 ft 470 kts 66°
2026-05-06 16:51 -3.48952 57.59278 36905 ft 470 kts 66°
2026-05-06 16:51 -3.46340 57.65283 36903 ft 470 kts 66°
2026-05-06 16:52 -3.43729 57.71283 36899 ft 470 kts 66°
2026-05-06 16:52 -3.41115 57.77292 36904 ft 471 kts 66°
2026-05-06 16:53 -3.38500 57.83298 36901 ft 471 kts 66°
2026-05-06 16:53 -3.35884 57.89308 36903 ft 471 kts 66°
2026-05-06 16:54 -3.33265 57.95322 36910 ft 471 kts 66°
2026-05-06 16:54 -3.30645 58.01339 36902 ft 472 kts 66°
2026-05-06 16:55 -3.28024 58.07357 36901 ft 472 kts 66°
2026-05-06 16:55 -3.25402 58.13375 36901 ft 472 kts 66°
2026-05-06 16:56 -3.22777 58.19399 36894 ft 472 kts 66°
2026-05-06 16:56 -3.20174 58.25372 36896 ft 472 kts 66°
2026-05-06 16:57 -3.17550 58.31392 36898 ft 472 kts 66°
2026-05-06 16:57 -3.14927 58.37406 36898 ft 471 kts 66°
2026-05-06 16:58 -3.12308 58.43414 36899 ft 471 kts 66°
2026-05-06 16:58 -3.09687 58.49423 36899 ft 471 kts 66°
2026-05-06 16:59 -3.07070 58.55422 36897 ft 470 kts 66°
2026-05-06 16:59 -3.04457 58.61413 36899 ft 469 kts 66°
2026-05-06 17:00 -3.01846 58.67397 36898 ft 469 kts 66°
2026-05-06 17:00 -2.99255 58.73334 36901 ft 468 kts 66°
2026-05-06 17:01 -2.96647 58.79308 36900 ft 468 kts 66°
2026-05-06 17:01 -2.94040 58.85279 36899 ft 468 kts 66°
2026-05-06 17:02 -2.91431 58.91254 36899 ft 469 kts 66°
2026-05-06 17:02 -2.88822 58.97232 36897 ft 469 kts 66°
2026-05-06 17:03 -2.86212 59.03209 36907 ft 469 kts 66°
2026-05-06 17:03 -2.83602 59.09186 36899 ft 469 kts 66°
2026-05-06 17:04 -2.80992 59.15162 36900 ft 469 kts 66°
2026-05-06 17:04 -2.78381 59.21140 36899 ft 469 kts 66°
2026-05-06 17:05 -2.75770 59.27115 36899 ft 469 kts 66°
2026-05-06 17:05 -2.73159 59.33092 36893 ft 469 kts 66°
2026-05-06 17:06 -2.70549 59.39064 36894 ft 469 kts 66°
2026-05-06 17:06 -2.67939 59.45037 36901 ft 469 kts 66°
2026-05-06 17:07 -2.65326 59.51012 36901 ft 469 kts 66°
2026-05-06 17:07 -2.62714 59.56986 36896 ft 469 kts 66°
2026-05-06 17:08 -2.60104 59.62955 36901 ft 469 kts 66°
2026-05-06 17:08 -2.57491 59.68932 36898 ft 469 kts 66°
2026-05-06 17:09 -2.54897 59.74862 36895 ft 469 kts 66°
2026-05-06 17:09 -2.52284 59.80834 36898 ft 469 kts 66°
2026-05-06 17:10 -2.49673 59.86804 36895 ft 469 kts 66°
2026-05-06 17:10 -2.47063 59.92770 36902 ft 468 kts 66°
2026-05-06 17:11 -2.44449 59.98742 36897 ft 468 kts 66°
2026-05-06 17:11 -2.41837 60.04707 36900 ft 468 kts 66°
2026-05-06 17:12 -2.39220 60.10675 36894 ft 468 kts 66°
2026-05-06 17:12 -2.36606 60.16639 36896 ft 468 kts 66°
2026-05-06 17:13 -2.33991 60.22607 36893 ft 468 kts 66°
2026-05-06 17:13 -2.31379 60.28566 36893 ft 468 kts 66°
2026-05-06 17:14 -2.28769 60.34521 36896 ft 468 kts 66°
2026-05-06 17:14 -2.26158 60.40477 36895 ft 467 kts 66°
2026-05-06 17:15 -2.23550 60.46425 36897 ft 467 kts 66°
2026-05-06 17:15 -2.20941 60.52377 36895 ft 467 kts 66°
2026-05-06 17:16 -2.18774 60.57317 36898 ft 467 kts 66°
2026-05-06 17:16 -2.15741 60.64232 36895 ft 467 kts 66°
2026-05-06 17:17 -2.13559 60.69208 36899 ft 467 kts 66°
2026-05-06 17:17 -2.10967 60.75116 36900 ft 467 kts 66°
2026-05-06 17:18 -2.08359 60.81061 36895 ft 467 kts 66°
2026-05-06 17:18 -2.05751 60.87004 36896 ft 467 kts 66°
2026-05-06 17:19 -2.03143 60.92947 36899 ft 467 kts 66°
2026-05-06 17:19 -2.00535 60.98890 36898 ft 467 kts 66°
2026-05-06 17:20 -1.97925 61.04836 36902 ft 467 kts 66°
2026-05-06 17:20 -1.95315 61.10779 36899 ft 467 kts 66°
2026-05-06 17:21 -1.92702 61.16731 36900 ft 468 kts 66°
2026-05-06 17:21 -1.90078 61.22708 37147 ft 471 kts 66°
2026-05-06 17:21 -1.88765 61.25699 37638 ft 468 kts 66°
2026-05-06 17:22 -1.87466 61.28656 38241 ft 462 kts 66°
2026-05-06 17:22 -1.86183 61.31578 38774 ft 457 kts 66°
2026-05-06 17:22 -1.84903 61.34490 38895 ft 460 kts 66°
2026-05-06 17:23 -1.82361 61.40365 38869 ft 459 kts 67°
2026-05-06 17:23 -1.79814 61.46148 38893 ft 456 kts 66°
2026-05-06 17:24 -1.77247 61.51936 38896 ft 455 kts 66°
2026-05-06 17:24 -1.74701 61.57710 38907 ft 454 kts 66°
2026-05-06 17:25 -1.72161 61.63491 38905 ft 454 kts 66°
2026-05-06 17:25 -1.69617 61.69282 38905 ft 455 kts 66°
2026-05-06 17:26 -1.67071 61.75078 38907 ft 456 kts 67°
2026-05-06 17:26 -1.64517 61.80888 38910 ft 457 kts 67°
2026-05-06 17:27 -1.61957 61.86714 38908 ft 458 kts 67°
2026-05-06 17:27 -1.59392 61.92546 38906 ft 459 kts 67°
2026-05-06 17:28 -1.56825 61.98385 38903 ft 459 kts 67°
2026-05-06 17:28 -1.54256 62.04230 38905 ft 459 kts 67°
2026-05-06 17:29 -1.51685 62.10076 38906 ft 459 kts 67°
2026-05-06 17:29 -1.49112 62.15926 38907 ft 459 kts 67°
2026-05-06 17:30 -1.46542 62.21769 38907 ft 459 kts 67°
2026-05-06 17:30 -1.44060 62.27633 38896 ft 456 kts 68°
2026-05-06 17:31 -1.41573 62.33435 38904 ft 454 kts 66°
2026-05-06 17:31 -1.38934 62.39185 38912 ft 457 kts 66°
2026-05-06 17:32 -1.36322 62.44994 38916 ft 459 kts 67°
2026-05-06 17:32 -1.33741 62.50844 38915 ft 461 kts 67°
2026-05-06 17:33 -1.31160 62.56723 38907 ft 462 kts 67°
2026-05-06 17:33 -1.28573 62.62613 38907 ft 463 kts 67°
2026-05-06 17:34 -1.25982 62.68503 38906 ft 463 kts 67°
2026-05-06 17:34 -1.23392 62.74387 38906 ft 462 kts 67°
2026-05-06 17:35 -1.20807 62.80260 38903 ft 461 kts 67°
2026-05-06 17:35 -1.18226 62.86124 38909 ft 460 kts 68°
2026-05-06 17:36 -1.14382 62.94855 38906 ft 459 kts 68°
2026-05-06 17:36 -1.11815 63.00685 38906 ft 458 kts 68°
2026-05-06 17:37 -1.09248 63.06516 38905 ft 458 kts 68°
2026-05-06 17:37 -1.06687 63.12333 38907 ft 457 kts 68°
2026-05-06 17:38 -1.04124 63.18154 38904 ft 458 kts 67°
2026-05-06 17:38 -1.01558 63.23983 38906 ft 458 kts 67°
2026-05-06 17:39 -0.98991 63.29812 38908 ft 459 kts 67°
2026-05-06 17:39 -0.96418 63.35653 38907 ft 459 kts 67°
2026-05-06 17:40 -0.93844 63.41498 38907 ft 460 kts 67°
2026-05-06 17:40 -0.91267 63.47349 38901 ft 461 kts 67°
2026-05-06 17:41 -0.88684 63.53214 38909 ft 461 kts 67°
2026-05-06 17:41 -0.86115 63.59047 38909 ft 462 kts 67°
2026-05-06 17:42 -0.83521 63.64935 38907 ft 463 kts 67°
2026-05-06 17:42 -0.80925 63.70828 38905 ft 464 kts 67°
2026-05-06 17:43 -0.78324 63.76732 38902 ft 464 kts 67°
2026-05-06 17:43 -0.75721 63.82640 38904 ft 465 kts 67°
2026-05-06 17:44 -0.73114 63.88557 38906 ft 465 kts 67°
2026-05-06 17:44 -0.70508 63.94472 38907 ft 465 kts 67°
2026-05-06 17:45 -0.67898 64.00396 38902 ft 466 kts 67°
2026-05-06 17:45 -0.65289 64.06316 38905 ft 466 kts 68°
2026-05-06 17:46 -0.62676 64.12245 38905 ft 466 kts 68°
2026-05-06 17:46 -0.60061 64.18180 38905 ft 467 kts 68°
2026-05-06 17:47 -0.57443 64.24120 38903 ft 467 kts 68°
2026-05-06 17:47 -0.54824 64.30064 38901 ft 467 kts 68°
2026-05-06 17:48 -0.52204 64.36007 38900 ft 468 kts 68°
2026-05-06 17:48 -0.49581 64.41960 38899 ft 468 kts 68°
2026-05-06 17:49 -0.46956 64.47916 38903 ft 468 kts 68°
2026-05-06 17:49 -0.44330 64.53874 38903 ft 469 kts 68°
2026-05-06 17:50 -0.41703 64.59835 38902 ft 469 kts 68°
2026-05-06 17:50 -0.39092 64.65757 38901 ft 469 kts 68°
2026-05-06 17:51 -0.36463 64.71721 38899 ft 469 kts 68°
2026-05-06 17:51 -0.33836 64.77682 38902 ft 469 kts 68°
2026-05-06 17:52 -0.31206 64.83648 38898 ft 469 kts 68°
2026-05-06 17:52 -0.28574 64.89618 38897 ft 469 kts 68°
2026-05-06 17:53 -0.25943 64.95587 38901 ft 469 kts 68°
2026-05-06 17:53 -0.23363 65.01570 38898 ft 467 kts 69°
2026-05-06 17:54 -0.20727 65.07508 38903 ft 468 kts 67°
2026-05-06 17:54 -0.18068 65.13449 38904 ft 469 kts 68°
2026-05-06 17:55 -0.15430 65.19421 38903 ft 470 kts 68°
2026-05-06 17:55 -0.12795 65.25410 38900 ft 472 kts 68°
2026-05-06 17:56 -0.10151 65.31412 38898 ft 472 kts 68°
2026-05-06 17:56 -0.07501 65.37425 38900 ft 473 kts 68°
2026-05-06 17:57 -0.04847 65.43447 38899 ft 474 kts 68°
2026-05-06 17:57 -0.02209 65.49433 38899 ft 474 kts 68°
2026-05-06 17:58 0.00446 65.55457 38897 ft 474 kts 68°
2026-05-06 17:58 0.03207 65.61423 38904 ft 474 kts 65°
2026-05-06 17:59 0.06261 65.67259 38896 ft 474 kts 64°
2026-05-06 17:59 0.09289 65.73104 38896 ft 473 kts 65°
2026-05-06 18:00 0.12252 65.78972 38899 ft 473 kts 65°
2026-05-06 18:00 0.15189 65.84852 38899 ft 473 kts 65°
2026-05-06 18:01 0.18122 65.90730 38895 ft 473 kts 65°
2026-05-06 18:01 0.21058 65.96609 38897 ft 473 kts 65°
2026-05-06 18:02 0.23996 66.02488 38897 ft 473 kts 65°
2026-05-06 18:02 0.26915 66.08325 38896 ft 472 kts 65°
2026-05-06 18:03 0.29852 66.14200 38896 ft 472 kts 65°
2026-05-06 18:03 0.32785 66.20066 38896 ft 472 kts 65°
2026-05-06 18:04 0.35244 66.24985 38896 ft 472 kts 65°
2026-05-06 18:04 0.38162 66.30823 38896 ft 472 kts 65°
2026-05-06 18:05 0.41094 66.36689 38897 ft 472 kts 65°
2026-05-06 18:05 0.44023 66.42549 38892 ft 472 kts 65°
2026-05-06 18:06 0.46956 66.48417 38894 ft 472 kts 65°
2026-05-06 18:06 0.49885 66.54276 38894 ft 471 kts 65°
2026-05-06 18:07 0.52815 66.60138 38892 ft 472 kts 65°
2026-05-06 18:07 0.55746 66.66001 38899 ft 472 kts 65°
2026-05-06 18:08 0.58677 66.71867 38898 ft 472 kts 65°
2026-05-06 18:08 0.61612 66.77738 38897 ft 472 kts 65°
2026-05-06 18:09 0.64548 66.83613 38890 ft 473 kts 65°
2026-05-06 18:09 0.67485 66.89490 38900 ft 473 kts 65°
2026-05-06 18:10 0.70424 66.95373 38891 ft 473 kts 65°
2026-05-06 18:10 0.73371 67.01274 38895 ft 476 kts 65°
2026-05-06 18:11 0.76320 67.07169 38898 ft 478 kts 65°
2026-05-06 18:11 0.79299 67.13131 38900 ft 481 kts 65°
2026-05-06 18:12 0.82291 67.19120 38899 ft 483 kts 65°
2026-05-06 18:12 0.85195 67.25147 38893 ft 478 kts 68°
2026-05-06 18:13 0.87950 67.31091 38898 ft 473 kts 63°
2026-05-06 18:13 0.91286 67.36869 38902 ft 485 kts 63°
2026-05-06 18:14 0.94338 67.42883 38898 ft 485 kts 66°
2026-05-06 18:14 0.97266 67.48961 38892 ft 485 kts 66°
2026-05-06 18:15 1.00225 67.55009 38884 ft 483 kts 65°
2026-05-06 18:15 1.03206 67.61003 38885 ft 480 kts 65°
2026-05-06 18:16 1.06165 67.66919 38883 ft 478 kts 65°
2026-05-06 18:16 1.09115 67.72847 38871 ft 474 kts 68°
2026-05-06 18:17 1.12008 67.78767 38884 ft 475 kts 65°
2026-05-06 18:17 1.15002 67.84662 38896 ft 476 kts 65°
2026-05-06 18:18 1.17988 67.90586 38892 ft 478 kts 65°
2026-05-06 18:18 1.20965 67.96542 38894 ft 480 kts 65°
2026-05-06 18:19 1.23949 68.02524 38894 ft 481 kts 65°
2026-05-06 18:19 1.26938 68.08515 38892 ft 482 kts 65°
2026-05-06 18:20 1.29939 68.14526 38889 ft 483 kts 65°
2026-05-06 18:20 1.32936 68.20527 38890 ft 483 kts 65°
2026-05-06 18:21 1.35945 68.26535 38888 ft 483 kts 65°
2026-05-06 18:21 1.38940 68.32552 38891 ft 484 kts 65°
2026-05-06 18:22 1.41940 68.38572 38891 ft 484 kts 65°
2026-05-06 18:22 1.44905 68.44590 38892 ft 482 kts 65°
2026-05-06 18:23 1.47887 68.50527 38882 ft 480 kts 65°
2026-05-06 18:23 1.50817 68.56496 38874 ft 477 kts 66°
2026-05-06 18:24 1.53792 68.62413 38886 ft 475 kts 65°
2026-05-06 18:24 1.56770 68.68298 38885 ft 474 kts 65°
2026-05-06 18:25 1.59717 68.74190 38886 ft 473 kts 65°
2026-05-06 18:25 1.62652 68.80081 38886 ft 473 kts 65°
2026-05-06 18:26 1.65589 68.85976 38885 ft 474 kts 65°
2026-05-06 18:26 1.68530 68.91878 38887 ft 475 kts 65°
2026-05-06 18:27 1.71483 68.97799 38883 ft 476 kts 65°
2026-05-06 18:27 1.74442 69.03734 38883 ft 478 kts 65°
2026-05-06 18:28 1.77406 69.09682 38884 ft 479 kts 65°
2026-05-06 18:28 1.80376 69.15640 38881 ft 479 kts 65°
2026-05-06 18:29 1.83405 69.21579 38876 ft 480 kts 63°
2026-05-06 18:29 1.86647 69.27405 38879 ft 479 kts 62°
2026-05-06 18:30 1.89920 69.33210 38882 ft 479 kts 63°
2026-05-06 18:30 1.93160 69.39020 38882 ft 478 kts 63°
2026-05-06 18:31 1.96379 69.44840 38882 ft 478 kts 63°
2026-05-06 18:31 1.99566 69.50613 38882 ft 477 kts 63°
2026-05-06 18:32 2.02777 69.56464 38884 ft 475 kts 63°
2026-05-06 18:32 2.05965 69.62248 38878 ft 474 kts 63°
2026-05-06 18:33 2.09140 69.67967 38877 ft 473 kts 63°
2026-05-06 18:33 2.12325 69.73717 38875 ft 472 kts 63°
2026-05-06 18:34 2.15498 69.79461 38882 ft 471 kts 63°
2026-05-06 18:34 2.18580 69.85223 38875 ft 470 kts 63°
2026-05-06 18:35 2.21773 69.90916 38879 ft 470 kts 62°
2026-05-06 18:35 2.24969 69.96629 38876 ft 471 kts 62°
2026-05-06 18:36 2.28144 70.02359 38874 ft 472 kts 63°
2026-05-06 18:36 2.31315 70.08106 38875 ft 472 kts 63°
2026-05-06 18:37 2.33950 70.12886 38875 ft 473 kts 63°
2026-05-06 18:37 2.37663 70.19618 38874 ft 473 kts 63°
2026-05-06 18:38 2.40816 70.25394 38869 ft 473 kts 62°
2026-05-06 18:38 2.44013 70.31164 38879 ft 475 kts 62°
2026-05-06 18:39 2.47216 70.36944 38877 ft 476 kts 62°
2026-05-06 18:40 2.52027 70.45655 38875 ft 478 kts 63°
2026-05-06 18:40 2.55118 70.51511 38870 ft 474 kts 63°
2026-05-06 18:41 2.58360 70.57212 38877 ft 474 kts 63°
2026-05-06 18:41 2.61567 70.62998 38878 ft 476 kts 62°
2026-05-06 18:42 2.64786 70.68790 38877 ft 477 kts 63°
2026-05-06 18:42 2.67993 70.74605 38871 ft 478 kts 63°
2026-05-06 18:43 2.71199 70.80432 38868 ft 478 kts 63°
2026-05-06 18:43 2.74404 70.86254 38869 ft 478 kts 63°
2026-05-06 18:44 2.77608 70.92073 38868 ft 477 kts 63°
2026-05-06 18:44 2.80808 70.97882 38868 ft 476 kts 63°
2026-05-06 18:45 2.84001 71.03678 38868 ft 476 kts 63°
2026-05-06 18:45 2.87189 71.09469 38866 ft 475 kts 63°
2026-05-06 18:46 2.90362 71.15266 38871 ft 473 kts 64°
2026-05-06 18:46 2.93511 71.21034 38866 ft 472 kts 63°
2026-05-06 18:47 2.96702 71.26777 38866 ft 472 kts 63°
2026-05-06 18:47 2.99875 71.32516 38865 ft 471 kts 63°
2026-05-06 18:48 3.03033 71.38251 38866 ft 470 kts 63°
2026-05-06 18:48 3.06168 71.43952 38864 ft 470 kts 63°
2026-05-06 18:49 3.09324 71.49692 38863 ft 471 kts 63°
2026-05-06 18:49 3.12480 71.55431 38867 ft 471 kts 63°
2026-05-06 18:50 3.15638 71.61173 38860 ft 472 kts 63°
2026-05-06 18:50 3.18803 71.66931 38858 ft 472 kts 63°
2026-05-06 18:51 3.21970 71.72692 38858 ft 473 kts 63°
2026-05-06 18:51 3.25139 71.78459 38858 ft 473 kts 63°
2026-05-06 18:52 3.28269 71.84240 38859 ft 472 kts 64°
2026-05-06 18:52 3.31440 71.89976 38859 ft 470 kts 63°
2026-05-06 18:53 3.34077 71.94729 38850 ft 469 kts 64°
2026-05-06 18:53 3.37220 72.00447 38856 ft 468 kts 64°
2026-05-06 18:54 3.40352 72.06157 38858 ft 467 kts 64°
2026-05-06 18:54 3.43422 72.11881 38858 ft 467 kts 64°
2026-05-06 18:55 3.46464 72.17626 38859 ft 467 kts 64°
2026-05-06 18:55 3.49510 72.23371 38858 ft 467 kts 64°
2026-05-06 18:56 3.52565 72.29117 38860 ft 468 kts 64°
2026-05-06 18:56 3.55627 72.34874 38859 ft 469 kts 64°
2026-05-06 18:57 3.58696 72.40643 38856 ft 470 kts 64°
2026-05-06 18:57 3.61769 72.46423 38856 ft 470 kts 64°
2026-05-06 18:58 3.64844 72.52208 38859 ft 471 kts 64°
2026-05-06 18:58 3.67892 72.57942 38856 ft 469 kts 64°
2026-05-06 18:59 3.70951 72.63699 38851 ft 467 kts 64°
2026-05-06 18:59 3.73993 72.69426 38852 ft 465 kts 64°
2026-05-06 19:00 3.77019 72.75125 38853 ft 463 kts 64°
2026-05-06 19:00 3.80042 72.80805 38850 ft 462 kts 64°
2026-05-06 19:01 3.83186 72.86411 38851 ft 461 kts 63°
2026-05-06 19:01 3.86374 72.91992 38850 ft 462 kts 63°
2026-05-06 19:02 3.89548 72.97579 38849 ft 462 kts 63°
2026-05-06 19:02 3.92721 73.03193 38851 ft 463 kts 63°
2026-05-06 19:03 3.95894 73.08815 38849 ft 464 kts 63°
2026-05-06 19:03 3.99075 73.14452 38854 ft 465 kts 63°
2026-05-06 19:04 4.02263 73.20102 38853 ft 466 kts 63°
2026-05-06 19:04 4.05453 73.25755 38856 ft 466 kts 63°
2026-05-06 19:05 4.08645 73.31415 38854 ft 467 kts 63°
2026-05-06 19:05 4.11838 73.37077 38857 ft 467 kts 63°
2026-05-06 19:06 4.15014 73.42710 38831 ft 468 kts 63°
2026-05-06 19:06 4.18217 73.48380 38831 ft 468 kts 61°
2026-05-06 19:07 4.22151 73.53598 38863 ft 472 kts 49°
2026-05-06 19:07 4.27030 73.58025 38859 ft 475 kts 41°
2026-05-06 19:08 4.32222 73.62125 38854 ft 475 kts 40°
2026-05-06 19:08 4.37413 73.66228 38847 ft 475 kts 41°
2026-05-06 19:09 4.42566 73.70373 38853 ft 474 kts 41°
2026-05-06 19:09 4.47667 73.74552 38857 ft 473 kts 40°
2026-05-06 19:10 4.52839 73.78642 38854 ft 473 kts 40°
2026-05-06 19:10 4.57991 73.82749 38842 ft 473 kts 40°
2026-05-06 19:11 4.63121 73.86870 38839 ft 473 kts 40°
2026-05-06 19:11 4.68251 73.90999 38838 ft 472 kts 40°
2026-05-06 19:12 4.73377 73.95124 38841 ft 472 kts 40°
2026-05-06 19:12 4.78502 73.99250 38840 ft 472 kts 41°
2026-05-06 19:13 4.83563 74.03375 38827 ft 472 kts 41°
2026-05-06 19:13 4.88734 74.07445 38835 ft 473 kts 40°
2026-05-06 19:14 4.93911 74.11526 38843 ft 474 kts 40°
2026-05-06 19:14 4.99084 74.15630 38841 ft 475 kts 41°
2026-05-06 19:15 5.04266 74.19745 38839 ft 476 kts 41°
2026-05-06 19:15 5.09462 74.23868 38839 ft 476 kts 40°
2026-05-06 19:16 5.14661 74.27991 38838 ft 476 kts 41°
2026-05-06 19:16 5.19847 74.32104 38835 ft 475 kts 41°
2026-05-06 19:17 5.25026 74.36214 38832 ft 474 kts 40°
2026-05-06 19:17 5.30191 74.40314 38835 ft 473 kts 40°
2026-05-06 19:18 5.35343 74.44404 38833 ft 472 kts 40°
2026-05-06 19:18 5.40491 74.48493 38832 ft 471 kts 40°
2026-05-06 19:19 5.45628 74.52572 38839 ft 471 kts 40°
2026-05-06 19:19 5.50737 74.56628 38828 ft 471 kts 40°
2026-05-06 19:20 5.55868 74.60714 38836 ft 471 kts 40°
2026-05-06 19:20 5.60981 74.64828 38834 ft 471 kts 39°
2026-05-06 19:21 5.66147 74.68888 38839 ft 472 kts 40°
2026-05-06 19:21 5.71310 74.72971 38838 ft 473 kts 40°
2026-05-06 19:22 5.76475 74.77076 38837 ft 473 kts 40°
2026-05-06 19:22 5.81637 74.81184 38837 ft 474 kts 40°
2026-05-06 19:23 5.86806 74.85296 38838 ft 474 kts 40°
2026-05-06 19:23 5.91975 74.89411 38827 ft 474 kts 39°
2026-05-06 19:24 5.97151 74.93530 38835 ft 475 kts 39°
2026-05-06 19:24 6.02326 74.97643 38833 ft 475 kts 39°
2026-05-06 19:25 6.07528 75.01745 38839 ft 475 kts 39°
2026-05-06 19:25 6.12731 75.05844 38838 ft 475 kts 39°
2026-05-06 19:26 6.17933 75.09947 38823 ft 475 kts 39°
2026-05-06 19:26 6.23097 75.14025 38830 ft 475 kts 39°
2026-05-06 19:27 6.28291 75.18133 38825 ft 475 kts 39°
2026-05-06 19:27 6.33479 75.22264 38830 ft 475 kts 39°
2026-05-06 19:28 6.38694 75.26359 38832 ft 476 kts 39°
2026-05-06 19:28 6.43911 75.30470 38834 ft 477 kts 39°
2026-05-06 19:29 6.49125 75.34594 38833 ft 477 kts 39°
2026-05-06 19:29 6.54345 75.38727 38829 ft 478 kts 39°
2026-05-06 19:30 6.59570 75.42862 38824 ft 477 kts 39°
2026-05-06 19:30 6.64749 75.47032 38819 ft 476 kts 39°
2026-05-06 19:31 6.69957 75.51127 38822 ft 475 kts 39°
2026-05-06 19:31 6.77755 75.57257 38822 ft 473 kts 39°
2026-05-06 19:32 6.82926 75.61351 38821 ft 473 kts 39°
2026-05-06 19:32 6.88087 75.65444 38824 ft 472 kts 39°
2026-05-06 19:33 6.93215 75.69511 38822 ft 472 kts 39°
2026-05-06 19:33 6.98376 75.73603 38822 ft 472 kts 39°
2026-05-06 19:34 7.03504 75.77747 38817 ft 472 kts 40°
2026-05-06 19:34 7.08636 75.81876 38824 ft 473 kts 39°
2026-05-06 19:35 7.13853 75.85928 38827 ft 474 kts 39°
2026-05-06 19:35 7.19063 75.90017 38825 ft 475 kts 39°
2026-05-06 19:36 7.24263 75.94139 38824 ft 476 kts 39°
2026-05-06 19:36 7.29469 75.98279 38821 ft 477 kts 39°
2026-05-06 19:37 7.34675 76.02419 38821 ft 477 kts 39°
2026-05-06 19:37 7.39035 76.05889 38814 ft 477 kts 39°
2026-05-06 19:38 7.45065 76.10727 38823 ft 476 kts 39°
2026-05-06 19:38 7.50299 76.14839 38819 ft 478 kts 39°
2026-05-06 19:39 7.55528 76.18986 38823 ft 479 kts 39°
2026-05-06 19:39 7.60753 76.23151 38820 ft 479 kts 39°
2026-05-06 19:40 7.65989 76.27325 38820 ft 480 kts 39°
2026-05-06 19:40 7.70349 76.30799 38820 ft 480 kts 39°
2026-05-06 19:41 7.75594 76.34977 38816 ft 480 kts 39°
2026-05-06 19:41 7.80836 76.39153 38815 ft 480 kts 39°
2026-05-06 19:42 7.86073 76.43328 38815 ft 480 kts 39°
2026-05-06 19:42 7.91310 76.47503 38815 ft 479 kts 39°
2026-05-06 19:43 7.96543 76.51675 38817 ft 479 kts 39°
2026-05-06 19:43 8.01780 76.55847 38816 ft 480 kts 39°
2026-05-06 19:44 8.07017 76.60029 38820 ft 481 kts 39°
2026-05-06 19:44 8.12263 76.64223 38821 ft 481 kts 39°
2026-05-06 19:45 8.17492 76.68462 38815 ft 482 kts 39°
2026-05-06 19:45 8.22748 76.72645 38817 ft 482 kts 38°
2026-05-06 19:46 8.28040 76.76821 38826 ft 483 kts 39°
2026-05-06 19:46 8.33322 76.81046 38827 ft 485 kts 39°
2026-05-06 19:47 8.38609 76.85284 38825 ft 485 kts 39°
2026-05-06 19:47 8.43867 76.89486 38826 ft 485 kts 36°
2026-05-06 19:48 8.46798 76.91179 38819 ft 488 kts 24°
2026-05-06 19:48 8.50052 76.92312 38833 ft 489 kts 15°
2026-05-06 19:48 8.56783 76.93039 38836 ft 492 kts
2026-05-06 19:49 8.63645 76.93269 38832 ft 495 kts
2026-05-06 19:49 8.70536 76.93535 38836 ft 496 kts
2026-05-06 19:50 8.77445 76.93859 38844 ft 498 kts
2026-05-06 19:50 8.84362 76.94203 38835 ft 498 kts
2026-05-06 19:51 8.91282 76.94547 38833 ft 497 kts
2026-05-06 19:51 8.98189 76.94868 38834 ft 496 kts
2026-05-06 19:52 9.05075 76.95216 38843 ft 495 kts
2026-05-06 19:52 9.11948 76.95562 38843 ft 494 kts
2026-05-06 19:53 9.18811 76.95901 38850 ft 494 kts
2026-05-06 19:53 9.25671 76.96241 38858 ft 492 kts
2026-05-06 19:54 9.32501 76.96587 38858 ft 490 kts
2026-05-06 19:54 9.39310 76.96900 38856 ft 490 kts
2026-05-06 19:55 9.46107 76.97241 38862 ft 489 kts
2026-05-06 19:55 9.52910 76.97579 38863 ft 489 kts
2026-05-06 19:56 9.59710 76.97909 38867 ft 489 kts
2026-05-06 19:56 9.66506 76.98281 38864 ft 490 kts
2026-05-06 19:57 9.73312 76.98617 38868 ft 490 kts
2026-05-06 19:57 9.80139 76.98893 38873 ft 492 kts
2026-05-06 19:58 9.86986 76.99226 38875 ft 494 kts
2026-05-06 19:58 9.93853 76.99564 38878 ft 494 kts
2026-05-06 19:59 10.00709 76.99918 38883 ft 492 kts
2026-05-06 19:59 10.07495 77.00278 38894 ft 491 kts
2026-05-06 20:00 10.14360 77.00575 38895 ft 490 kts
2026-05-06 20:00 10.21114 77.00913 38903 ft 489 kts
2026-05-06 20:01 10.27911 77.01217 38905 ft 489 kts
2026-05-06 20:01 10.34714 77.01534 38897 ft 489 kts
2026-05-06 20:02 10.41515 77.01874 38895 ft 489 kts
2026-05-06 20:02 10.48320 77.02213 38890 ft 489 kts
2026-05-06 20:03 10.55109 77.02547 38884 ft 489 kts
2026-05-06 20:03 10.61901 77.02876 38891 ft 488 kts
2026-05-06 20:04 10.68686 77.03208 38887 ft 488 kts
2026-05-06 20:04 10.75485 77.03533 38902 ft 490 kts
2026-05-06 20:05 10.82316 77.03868 38912 ft 492 kts
2026-05-06 20:05 10.89173 77.04208 38916 ft 494 kts
2026-05-06 20:06 10.96043 77.04544 38916 ft 494 kts
2026-05-06 20:06 11.02913 77.04911 38914 ft 494 kts
2026-05-06 20:07 11.09641 77.06191 38914 ft 492 kts 12°
2026-05-06 20:07 11.16330 77.07676 38915 ft 490 kts 12°
2026-05-06 20:08 11.22997 77.09125 38913 ft 490 kts 12°
2026-05-06 20:08 11.29660 77.10555 38912 ft 489 kts 12°
2026-05-06 20:09 11.36318 77.11984 38924 ft 489 kts 12°
2026-05-06 20:09 11.42932 77.13405 38923 ft 489 kts 12°
2026-05-06 20:10 11.49593 77.14844 38935 ft 489 kts 12°
2026-05-06 20:10 11.56248 77.16293 38935 ft 489 kts 12°
2026-05-06 20:11 11.62934 77.17749 38397 ft 499 kts 12°
2026-05-06 20:11 11.66340 77.18490 37627 ft 500 kts 12°
2026-05-06 20:11 11.69737 77.19230 36865 ft 499 kts 12°
2026-05-06 20:12 11.73113 77.19965 36316 ft 493 kts 12°
2026-05-06 20:12 11.76453 77.20692 35799 ft 488 kts 12°
2026-05-06 20:12 11.79758 77.21411 35259 ft 485 kts 12°
2026-05-06 20:12 11.83048 77.22128 34716 ft 482 kts 12°
2026-05-06 20:13 11.86314 77.22840 34184 ft 479 kts 12°
2026-05-06 20:13 11.89564 77.23548 33608 ft 476 kts 12°
2026-05-06 20:13 11.92791 77.24252 33064 ft 472 kts 12°
2026-05-06 20:13 11.95989 77.24949 32539 ft 468 kts 12°
2026-05-06 20:14 11.99164 77.25642 32024 ft 464 kts 12°
2026-05-06 20:14 12.02308 77.26328 31519 ft 460 kts 12°
2026-05-06 20:14 12.05424 77.27008 31007 ft 457 kts 12°
2026-05-06 20:14 12.08519 77.27684 30495 ft 453 kts 12°
2026-05-06 20:15 12.11597 77.28356 29974 ft 450 kts 12°
2026-05-06 20:15 12.14647 77.29026 29399 ft 446 kts 12°
2026-05-06 20:15 12.17605 77.29914 28859 ft 441 kts 19°
2026-05-06 20:15 12.20443 77.31066 28355 ft 437 kts 22°
2026-05-06 20:16 12.23214 77.32305 27851 ft 433 kts 23°
2026-05-06 20:16 12.25955 77.33542 27363 ft 429 kts 23°
2026-05-06 20:16 12.28686 77.34749 26886 ft 426 kts 22°
2026-05-06 20:16 12.31403 77.35920 26412 ft 422 kts 22°
2026-05-06 20:17 12.34116 77.37067 25941 ft 420 kts 21°
2026-05-06 20:17 12.36809 77.38194 25465 ft 418 kts 21°
2026-05-06 20:17 12.39491 77.39312 24992 ft 416 kts 21°
2026-05-06 20:17 12.42165 77.40425 24522 ft 414 kts 21°
2026-05-06 20:18 12.44830 77.41536 24056 ft 412 kts 21°
2026-05-06 20:18 12.47481 77.42643 23596 ft 411 kts 21°
2026-05-06 20:18 12.50117 77.43743 23056 ft 409 kts 21°
2026-05-06 20:18 12.52727 77.44851 22566 ft 404 kts 21°
2026-05-06 20:19 12.55319 77.45924 22107 ft 400 kts 20°
2026-05-06 20:19 12.57853 77.46973 21658 ft 397 kts 20°
2026-05-06 20:19 12.60434 77.48048 21202 ft 394 kts 20°
2026-05-06 20:19 12.62970 77.49105 20769 ft 392 kts 20°
2026-05-06 20:20 12.65457 77.50142 20323 ft 390 kts 21°
2026-05-06 20:20 12.67966 77.51189 19885 ft 389 kts 20°
2026-05-06 20:20 12.70468 77.52232 19440 ft 388 kts 20°
2026-05-06 20:20 12.72964 77.53273 18984 ft 387 kts 20°
2026-05-06 20:21 12.75457 77.54314 18527 ft 387 kts 20°
2026-05-06 20:21 12.77956 77.55356 18038 ft 387 kts 20°
2026-05-06 20:21 12.80442 77.56394 17545 ft 385 kts 21°
2026-05-06 20:21 12.82917 77.57426 17073 ft 383 kts 21°
2026-05-06 20:22 12.85375 77.58450 16601 ft 380 kts 21°
2026-05-06 20:22 12.87814 77.59474 16154 ft 378 kts 21°
2026-05-06 20:22 12.90222 77.60487 15696 ft 372 kts 21°
2026-05-06 20:22 12.92583 77.61475 15187 ft 358 kts 21°
2026-05-06 20:23 12.94850 77.62415 14753 ft 345 kts 21°
2026-05-06 20:23 12.97038 77.63340 14512 ft 332 kts 21°
2026-05-06 20:23 12.99142 77.64200 14363 ft 320 kts 20°
2026-05-06 20:23 13.01124 77.65022 14205 ft 292 kts 21°
2026-05-06 20:24 13.02908 77.65777 14070 ft 263 kts 21°
2026-05-06 20:24 13.04541 77.66468 14006 ft 247 kts 21°
2026-05-06 20:24 13.06093 77.67121 13906 ft 238 kts 21°
2026-05-06 20:24 13.07649 77.67774 13849 ft 246 kts 21°
2026-05-06 20:25 13.09218 77.68537 13727 ft 253 kts 36°
2026-05-06 20:25 13.10322 77.69917 13521 ft 255 kts 65°
2026-05-06 20:25 13.10675 77.71683 13237 ft 253 kts 86°
2026-05-06 20:25 13.10666 77.73467 12952 ft 248 kts 88°
2026-05-06 20:26 13.10641 77.75223 12678 ft 247 kts 88°
2026-05-06 20:26 13.10616 77.77001 12415 ft 253 kts 88°
2026-05-06 20:26 13.10602 77.78205 12224 ft 257 kts 88°
2026-05-06 20:26 13.10583 77.80048 11924 ft 259 kts 88°
2026-05-06 20:27 13.10563 77.82472 11498 ft 253 kts 89°
2026-05-06 20:27 13.10509 77.84251 11195 ft 245 kts 89°
2026-05-06 20:27 13.10498 77.85980 10910 ft 240 kts 87°
2026-05-06 20:27 13.10509 77.87673 10617 ft 235 kts 87°
2026-05-06 20:28 13.10511 77.88803 10441 ft 234 kts 88°
2026-05-06 20:28 13.10506 77.90490 10184 ft 240 kts 88°
2026-05-06 20:28 13.10498 77.92225 9887 ft 245 kts 88°
2026-05-06 20:28 13.10487 77.93952 9627 ft 240 kts 88°
2026-05-06 20:29 13.10482 77.95642 9339 ft 232 kts 84°
2026-05-06 20:29 13.10933 77.97155 9031 ft 217 kts 53°
2026-05-06 20:29 13.12026 77.98147 8794 ft 208 kts 30°
2026-05-06 20:29 13.13369 77.98677 8555 ft 209 kts 10°
2026-05-06 20:30 13.14836 77.98701 8316 ft 212 kts
2026-05-06 20:30 13.17810 77.98612 7820 ft 217 kts
2026-05-06 20:30 13.19258 77.98299 7547 ft 214 kts 328°
2026-05-06 20:31 13.20205 77.97179 7450 ft 214 kts 291°
2026-05-06 20:31 13.20463 77.95690 7241 ft 211 kts 274°
2026-05-06 20:31 13.20525 77.94205 6961 ft 207 kts 272°
2026-05-06 20:31 13.20551 77.92762 6728 ft 198 kts 272°
2026-05-06 20:32 13.20567 77.91363 6469 ft 194 kts 269°
2026-05-06 20:32 13.20558 77.89973 6252 ft 196 kts 270°
2026-05-06 20:32 13.20562 77.88590 5978 ft 191 kts 269°
2026-05-06 20:32 13.20568 77.87267 5765 ft 183 kts 269°
2026-05-06 20:33 13.20579 77.85970 5511 ft 178 kts 268°
2026-05-06 20:33 13.20636 77.84733 5264 ft 170 kts 270°
2026-05-06 20:33 13.20594 77.83518 5109 ft 172 kts 263°
2026-05-06 20:33 13.20592 77.82277 4872 ft 174 kts 267°
2026-05-06 20:34 13.20616 77.81056 4667 ft 169 kts 266°
2026-05-06 20:34 13.20635 77.79860 4457 ft 165 kts 265°
2026-05-06 20:34 13.20631 77.78687 4253 ft 164 kts 266°
2026-05-06 20:34 13.20643 77.77511 4028 ft 167 kts 267°
2026-05-06 20:35 13.20655 77.76340 3811 ft 161 kts 268°
2026-05-06 20:35 13.20666 77.75189 3596 ft 163 kts 266°
2026-05-06 20:35 13.20666 77.74010 3386 ft 167 kts 266°
2026-05-06 20:35 13.20701 77.72834 3135 ft 162 kts 269°
2026-05-06 20:36 13.20678 77.71698 2976 ft 152 kts 268°
2026-05-06 20:36 13.20695 77.70720 2974 ft 120 kts 269°
2026-05-06 20:36 13.20702 77.70000 2973 ft 86 kts 270°
2026-05-06 20:36 13.20700 77.69687 2974 ft 25 kts 264°
2026-05-06 20:37 13.20659 77.69518 2972 ft 23 kts 234°
2026-05-06 20:37 13.20610 77.69446 2971 ft 12 kts 239°
2026-05-06 20:37 13.20563 77.69372 2971 ft 13 kts 233°
2026-05-06 20:37 13.20484 77.69338 2972 ft 13 kts 183°
2026-05-06 20:38 13.20393 77.69338 2973 ft 13 kts 179°
2026-05-06 20:38 13.20303 77.69348 2973 ft 13 kts 152°
2026-05-06 20:38 13.20272 77.69433 2973 ft 13 kts 94°
2026-05-06 20:38 13.20272 77.69529 2973 ft 13 kts 90°
2026-05-06 20:39 13.20271 77.69625 2973 ft 13 kts 90°
2026-05-06 20:39 13.20271 77.69721 2973 ft 13 kts 90°
2026-05-06 20:39 13.20269 77.69797 2973 ft 8 kts 101°
2026-05-06 20:39 13.20222 77.69822 2973 ft 8 kts 170°
2026-05-06 20:40 13.20201 77.69825 2973 ft 3 kts 174°
2026-05-06 20:40 13.20182 77.69825 2973 ft 1 kts 180°
2026-05-06 20:40 13.20179 77.69825 2973 ft 0 kts 180°